Weather History for Northeast Philadelphia, PA

Change the Weather History Date:

Monday, April 29, 2013

  Actual Average Record
Temperature  
Mean Temperature 54 °F -  
Max Temperature 57 °F 67 °F 79 °F (2003)
Min Temperature 51 °F 45 °F 37 °F (1998)
Degree Days  
Heating Degree Days 11    
Growing Degree Days 4 (Base 50)    
Moisture  
Dew Point 52 °F    
Average Humidity 92    
Maximum Humidity 100    
Minimum Humidity 62    
Precipitation  
Precipitation 0.33 in - - ()
Sea Level Pressure  
Sea Level Pressure 30.18 in    
Wind  
Wind Speed 7 mph (SE)    
Max Wind Speed 12 mph    
Max Gust Speed -    
Visibility 7 miles    
Events Rain    
Averages and records for this station are not official NWS values.
T = Trace of Precipitation, MM = Missing Value Source: NWS Daily Summary

Daily Weather History Graph

Daily Weather History Graph

Search for Another Location

Airport:

Trip Planner

Search our weather history database for the weather conditions in past years. The results will help you decide how hot, cold, wet, or windy it might be!

Date:

Astronomy

Apr. 29, 2013 Rise Set
Actual Time 6:02 AM EDT 7:53 PM EDT
Civil Twilight 5:33 AM EDT 8:22 PM EDT
Nautical Twilight 4:57 AM EDT 8:58 PM EDT
Astronomical Twilight 4:19 AM EDT 9:36 PM EDT
Moon No Moon Rise 9:20 AM EDT (4/29)
Length of Visible Light 14h 49m
Length of Day
13h 50m
Waning Gibbous, 80% of the Moon is Illuminated
Apr 29
Waning Gibbous
May 2
Last Quarter
May 9
New
May 18
First Quarter
May 25
Full

Hourly Weather History & Observations

Time (EDT) Temp. Dew Point Humidity Pressure Visibility Wind Dir Wind Speed Gust Speed Precip Events Conditions
12:54 AM 54.0 °F 41.0 °F 62% 30.24 in 10.0 mi ESE 5.8 mph - 0.00 in Rain Light Rain
1:54 AM 54.0 °F 42.1 °F 64% 30.22 in 10.0 mi Calm Calm - 0.00 in Rain Light Rain
2:54 AM 53.1 °F 46.9 °F 80% 30.20 in 10.0 mi East 3.5 mph - 0.00 in   Overcast
3:54 AM 52.0 °F 48.0 °F 86% 30.21 in 10.0 mi East 3.5 mph - 0.01 in Rain Light Rain
4:54 AM 52.0 °F 48.9 °F 89% 30.20 in 10.0 mi ESE 3.5 mph - 0.03 in Rain Light Rain
5:54 AM 52.0 °F 50.0 °F 93% 30.19 in 7.0 mi SE 9.2 mph - 0.02 in Rain Light Rain
6:19 AM 51.8 °F 50.0 °F 94% 30.20 in 7.0 mi SE 6.9 mph - 0.03 in Rain Light Rain
6:29 AM 51.8 °F 50.0 °F 94% 30.20 in 7.0 mi SE 6.9 mph - 0.04 in Rain Light Rain
6:38 AM 51.8 °F 50.0 °F 94% 30.21 in 7.0 mi SE 4.6 mph - 0.04 in Rain Light Rain
6:54 AM 52.0 °F 51.1 °F 97% 30.21 in 7.0 mi SE 6.9 mph - 0.05 in Rain Light Rain
7:54 AM 53.1 °F 51.1 °F 93% 30.21 in 10.0 mi SE 9.2 mph - 0.02 in Rain Light Rain
8:54 AM 53.1 °F 51.1 °F 93% 30.21 in 8.0 mi SE 10.4 mph - 0.01 in Rain Light Rain
9:54 AM 54.0 °F 51.1 °F 90% 30.20 in 10.0 mi ESE 9.2 mph - 0.02 in Rain Light Rain
10:54 AM 54.0 °F 52.0 °F 93% 30.19 in 9.0 mi ESE 9.2 mph - 0.03 in Rain Light Rain
11:54 AM 54.0 °F 52.0 °F 93% 30.19 in 10.0 mi SE 11.5 mph - 0.00 in Rain Light Rain
12:33 PM 55.4 °F 53.6 °F 94% 30.18 in 2.0 mi ESE 11.5 mph - 0.00 in Rain Light Rain
12:43 PM 55.4 °F 53.6 °F 94% 30.18 in 1.8 mi ESE 10.4 mph - 0.01 in Rain Light Rain
12:54 PM 55.0 °F 53.1 °F 93% 30.18 in 2.5 mi ESE 10.4 mph - 0.02 in Rain Light Rain
1:01 PM 55.4 °F 53.6 °F 94% 30.18 in 5.0 mi SE 9.2 mph - 0.00 in Rain Light Rain
1:11 PM 55.4 °F 53.6 °F 94% 30.18 in 1.8 mi ESE 8.1 mph - 0.01 in Rain Light Rain
1:23 PM 55.4 °F 53.6 °F 94% 30.17 in 2.5 mi ESE 8.1 mph - N/A Rain Light Rain
1:34 PM 55.4 °F 53.6 °F 94% 30.17 in 1.8 mi ESE 11.5 mph - 0.03 in Rain Light Rain
1:43 PM 55.4 °F 53.6 °F 94% 30.17 in 2.5 mi ESE 9.2 mph - 0.03 in Rain Light Rain
1:50 PM 55.4 °F 53.6 °F 94% 30.17 in 4.0 mi ESE 9.2 mph - 0.04 in Rain Light Rain
1:54 PM 55.9 °F 54.0 °F 93% 30.17 in 6.0 mi ESE 8.1 mph - 0.04 in Rain Light Rain
2:17 PM 55.4 °F 53.6 °F 94% 30.17 in 2.5 mi ESE 6.9 mph - 0.01 in Rain Light Rain
2:37 PM 55.4 °F 55.4 °F 100% 30.17 in 7.0 mi SE 8.1 mph - 0.01 in Rain Light Rain
2:54 PM 55.9 °F 55.0 °F 97% 30.16 in 10.0 mi ESE 9.2 mph - 0.01 in   Overcast
3:54 PM 55.9 °F 55.0 °F 97% 30.16 in 10.0 mi ESE 6.9 mph - N/A   Overcast
4:15 PM 55.4 °F 53.6 °F 94% 30.15 in 10.0 mi ESE 8.1 mph - 0.00 in Rain Light Rain
4:29 PM 57.2 °F 55.4 °F 94% 30.15 in 10.0 mi SE 5.8 mph - 0.00 in Rain Light Rain
4:54 PM 55.9 °F 55.0 °F 97% 30.15 in 10.0 mi ESE 6.9 mph - 0.00 in   Overcast
5:05 PM 57.2 °F 55.4 °F 94% 30.16 in 10.0 mi SE 5.8 mph - N/A   Overcast
5:17 PM 57.2 °F 55.4 °F 94% 30.16 in 10.0 mi SE 4.6 mph - N/A   Overcast
5:28 PM 57.2 °F 53.6 °F 88% 30.16 in 10.0 mi SSE 5.8 mph - N/A   Overcast
5:40 PM 57.2 °F 53.6 °F 88% 30.16 in 10.0 mi Variable 3.5 mph - N/A   Overcast
5:54 PM 57.0 °F 54.0 °F 89% 30.16 in 10.0 mi SSE 4.6 mph - 0.00 in Rain Light Rain
6:17 PM 57.2 °F 53.6 °F 88% 30.16 in 3.0 mi SE 5.8 mph - 0.01 in Rain Light Rain
6:19 PM 57.2 °F 53.6 °F 88% 30.16 in 2.5 mi SE 4.6 mph - 0.01 in Rain Light Rain
6:51 PM 55.4 °F 53.6 °F 94% 30.17 in 6.0 mi SE 8.1 mph - 0.04 in Rain Light Rain
6:54 PM 55.9 °F 54.0 °F 93% 30.17 in 2.0 mi SE 5.8 mph - 0.04 in Rain Light Rain
7:14 PM 55.4 °F 53.6 °F 94% 30.16 in 5.0 mi ESE 6.9 mph - 0.01 in Rain Light Rain
7:54 PM 55.0 °F 53.1 °F 93% 30.17 in 8.0 mi SE 10.4 mph - 0.02 in Rain Light Rain
8:15 PM 55.4 °F 53.6 °F 94% 30.18 in 6.0 mi SE 6.9 mph - 0.00 in Rain Light Rain
8:33 PM 55.4 °F 53.6 °F 94% 30.18 in 6.0 mi ESE 8.1 mph - 0.00 in Rain Light Rain
8:54 PM 55.0 °F 53.1 °F 93% 30.19 in 10.0 mi ESE 5.8 mph - 0.00 in Rain Light Rain
9:02 PM 55.4 °F 53.6 °F 94% 30.19 in 10.0 mi ESE 6.9 mph - 0.00 in Rain Light Rain
9:54 PM 54.0 °F 53.1 °F 97% 30.20 in 10.0 mi East 9.2 mph - 0.01 in Rain Light Rain
10:30 PM 53.6 °F 51.8 °F 94% 30.20 in 7.0 mi East 6.9 mph - 0.00 in Rain Light Rain
10:54 PM 54.0 °F 52.0 °F 93% 30.20 in 10.0 mi ESE 8.1 mph - 0.00 in Rain Light Rain
11:54 PM 54.0 °F 52.0 °F 93% 30.20 in 8.0 mi ESE 5.8 mph - 0.00 in Rain Light Rain